Tracking 20241 objects as of 29-Jan-2020
HD Live streaming from Space Station
objects crossing your sky now

EUTE HOT BIRD 13A (HB 6)

Track EUTE HOT BIRD 13A (HB 6) now!
EUTE HOT BIRD 13A (HB 6) is classified as:


NORAD ID: 27499
Int'l Code: 2002-038A
Perigee: 36,038.4 km
Apogee: 36,085.7 km
Inclination: 2.9 °
Period: 1,449.8 minutes
Semi major axis: 42433 km
RCS: 15.0118 m2 (large)
Launch date: August 21, 2002
Source: European Telecommunications Satellite Organization (EUTE)
Launch site: AIR FORCE EASTERN TEST RANGE (AFETR)

Cable programming; direct-to-home broadcasting; 28 Ku-band, 4 Ka-band transponders
aabbcc
Your satellite tracking list
Your tracking list is empty




NASA's NSSDC Master Catalog

Two Line Element Set (TLE):
1 27499U 02038A   20028.51329416 +.00000076 +00000-0 +00000-0 0  9990
2 27499 002.8977 084.1768 0005566 245.3692 052.0370 00.99322276027773
Source of the keplerian elements: AFSPC